Etusivu
METAR-TAF:

METAR-TAF

Lentoasemat :

Camp Mabry

Austin, Texas, Yhdysvallat

Leveyspiiri: 30-19N, Pituuspiiri: 097-46W, korkeus merenpinnasta: 200 m

Tämänhetkinen sää

Tämä raportti tehtiin 41 minuuttia sitten, kello 02.51 UTC
tyyntä
Lämpötila 14°C
Kosteus 55%
Ilmanpaine 1011 hPa
Näkyvyys: 16.1 km
selkeää

METAR: KATT 250251Z AUTO 00000KT 10SM CLR 14/05 A2984 RMK AO2 SLP102 T01390050 53009

Aika: 21:32 (03:32 UTC)


TAF: puuttuu

Säähavainnot ja -ennusteet yli 4000 lentoasemalta (METAR- ja TAF-raportit).

Käytössä olevat sääasemat on merkitty karttaan keltaisilla ja punaisilla pisteillä.

Aseta hiiri pisteen päälle nähdäksesi sääaseman nimen.

Klikkaa sitten nähdäksesi säähavainnot ja -ennusteet.

Kartan vaihtaminen: klikkaa mustalla rastilla varustettuja vihreitä pisteitä, niin voit zoomata sisään; viivalla varustettua vihreää pistettä, niin voit zoomata ulos tai vihreitä nuolia, niin pääset viereisille kartoille.


METAR-TAF: